H1 CPF 2 NER 2021 5 8 9 128 01 glonass137 H2 1705501 9137 42939 2021 5 8 0 0 0 2021 5 11 23 45 0 900 1 1 0 0 0 1 H9 10 0 59342 0.00000 0 -6207527.381 9211183.943 22971291.744 10 0 59342 900.00000 0 -8698321.069 7906954.166 22645378.656 10 0 59342 1800.00000 0 -11215194.434 6812230.705 21880031.419 10 0 59342 2700.00000 0 -13691467.728 5942595.766 20690021.485 10 0 59342 3600.00000 0 -16059805.459 5301422.120 19098360.747 10 0 59342 4500.00000 0 -18254837.642 4879907.210 17135863.658 10 0 59342 5400.00000 0 -20215715.157 4657630.933 14840557.818 10 0 59342 6300.00000 0 -21888493.171 4603613.745 12256953.488 10 0 59342 7200.00000 0 -23228243.256 4677830.380 9435185.389 10 0 59342 8100.00000 0 -24200805.870 4833115.267 6430042.808 10 0 59342 9000.00000 0 -24784109.560 5017378.907 3299906.422 10 0 59342 9900.00000 0 -24969001.153 5176041.134 105612.513 10 0 59342 10800.00000 0 -24759551.758 5254577.637 -3090733.122 10 0 59342 11700.00000 0 -24172825.401 5201071.081 -6226968.019 10 0 59342 12600.00000 0 -23238119.874 4968657.730 -9242088.246 10 0 59342 13500.00000 0 -21995711.811 4517764.786 -12077441.549 10 0 59342 14400.00000 0 -20495158.989 3818042.425 -14677874.428 10 0 59342 15300.00000 0 -18793231.656 2849907.548 -16992810.074 10 0 59342 16200.00000 0 -16951560.310 1605632.739 -18977235.722 10 0 59342 17100.00000 0 -15034099.144 89933.236 -20592579.955 10 0 59342 18000.00000 0 -13104512.017 -1679973.882 -21807462.808 10 0 59342 18900.00000 0 -11223590.719 -3674841.847 -22598304.297 10 0 59342 19800.00000 0 -9446813.582 -5854378.836 -22949779.899 10 0 59342 20700.00000 0 -7822146.397 -8168704.598 -22855114.503 10 0 59342 21600.00000 0 -6388176.988 -10560218.943 -22316209.633 10 0 59342 22500.00000 0 -5172660.576 -12965804.655 -21343601.826 10 0 59342 23400.00000 0 -4191535.742 -15319273.416 -19956253.341 10 0 59342 24300.00000 0 -3448450.849 -17553953.207 -18181179.469 10 0 59342 25200.00000 0 -2934819.320 -19605309.760 -16052919.811 10 0 59342 26100.00000 0 -2630400.040 -21413493.041 -13612863.877 10 0 59342 27000.00000 0 -2504377.029 -22925702.955 -10908444.137 10 0 59342 27900.00000 0 -2516891.606 -24098275.910 -7992212.188 10 0 59342 28800.00000 0 -2620961.308 -24898405.480 -4920816.130 10 0 59342 29700.00000 0 -2764703.584 -25305425.740 -1753899.120 10 0 59342 30600.00000 0 -2893769.481 -25311604.155 1447059.364 10 0 59342 31500.00000 0 -2953883.871 -24922411.397 4619936.774 10 0 59342 32400.00000 0 -2893384.304 -24156257.463 7703171.940 10 0 59342 33300.00000 0 -2665650.787 -23043705.718 10636957.282 10 0 59342 34200.00000 0 -2231323.541 -21626198.337 13364395.575 10 0 59342 35100.00000 0 -1560214.791 -19954346.880 15832599.077 10 0 59342 36000.00000 0 -632833.591 -18085859.720 17993710.058 10 0 59342 36900.00000 0 558541.024 -16083192.988 19805823.413 10 0 59342 37800.00000 0 2009284.364 -14011022.890 21233794.125 10 0 59342 38700.00000 0 3702373.021 -11933644.377 22249914.617 10 0 59342 39600.00000 0 5608857.772 -9912404.034 22834449.436 10 0 59342 40500.00000 0 7688844.064 -8003273.339 22976017.421 10 0 59342 41400.00000 0 9892940.737 -6254662.489 22671814.229 10 0 59342 42300.00000 0 12164118.083 -4705565.050 21927670.879 10 0 59342 43200.00000 0 14439899.423 -3384109.901 20757946.918 10 0 59342 44100.00000 0 16654796.362 -2306580.119 19185259.670 10 0 59342 45000.00000 0 18742887.384 -1476939.227 17240054.089 10 0 59342 45900.00000 0 20640433.227 -886884.101 14960020.600 10 0 59342 46800.00000 0 22288420.462 -516421.901 12389371.262 10 0 59342 47700.00000 0 23634927.179 -334946.512 9577987.506 10 0 59342 48600.00000 0 24637211.708 -302768.827 6580455.299 10 0 59342 49500.00000 0 25263436.523 -373035.966 3455006.064 10 0 59342 50400.00000 0 25493954.415 -493957.906 262383.922 10 0 59342 51300.00000 0 25322102.361 -611246.684 -2935338.499 10 0 59342 52200.00000 0 24754469.097 -670664.117 -6075972.202 10 0 59342 53100.00000 0 23810624.684 -620569.167 -9098427.505 10 0 59342 54000.00000 0 22522323.132 -414355.923 -11943908.870 10 0 59342 54900.00000 0 20932211.499 -12677.751 -14557064.848 10 0 59342 55800.00000 0 19092099.804 614637.713 -16887069.969 10 0 59342 56700.00000 0 17060864.639 1487064.924 -18888617.080 10 0 59342 57600.00000 0 14902074.672 2612313.651 -20522800.518 10 0 59342 58500.00000 0 12681437.909 3985765.077 -21757872.861 10 0 59342 59400.00000 0 10464177.686 5590435.518 -22569860.715 10 0 59342 60300.00000 0 8312447.143 7397470.164 -22943027.926 10 0 59342 61200.00000 0 6282889.975 9367146.893 -22870177.574 10 0 59342 62100.00000 0 4424448.830 11450348.765 -22352787.387 10 0 59342 63000.00000 0 2776511.974 13590444.225 -21400976.332 10 0 59342 63900.00000 0 1367474.631 15725496.826 -20033303.382 10 0 59342 64800.00000 0 213773.737 17790712.613 -18276402.600 10 0 59342 65700.00000 0 -680565.025 19721023.288 -16164461.741 10 0 59342 66600.00000 0 -1323850.492 21453697.494 -13738554.614 10 0 59342 67500.00000 0 -1736124.478 22930871.370 -11045840.170 10 0 59342 68400.00000 0 -1948062.267 24101892.841 -8138643.918 10 0 59342 69300.00000 0 -1999422.872 24925381.761 -5073439.608 10 0 59342 70200.00000 0 -1937115.663 25370919.982 -1909751.103 10 0 59342 71100.00000 0 -1812966.072 25420300.873 1291004.116 10 0 59342 72000.00000 0 -1681275.577 25068286.264 4466707.044 10 0 59342 72900.00000 0 -1596279.782 24322839.483 7555741.587 10 0 59342 73800.00000 0 -1609612.497 23204825.067 10498187.862 10 0 59342 74700.00000 0 -1767883.315 21747188.030 13236981.162 10 0 59342 75600.00000 0 -2110471.248 19993647.274 15719014.308 10 0 59342 76500.00000 0 -2667627.775 17996957.783 17896162.413 10 0 59342 77400.00000 0 -3458969.525 15816814.138 19726210.602 10 0 59342 78300.00000 0 -4492424.503 13517482.470 21173667.397 10 0 59342 79200.00000 0 -5763676.811 11165259.014 22210448.672 10 0 59342 80100.00000 0 -7256134.010 8825860.420 22816419.496 10 0 59342 81000.00000 0 -8941419.660 6561853.533 22979783.920 10 0 59342 81900.00000 0 -10780371.783 4430230.538 22697315.416 10 0 59342 82800.00000 0 -12724506.965 2480229.444 21974423.496 10 0 59342 83700.00000 0 -14717890.496 751489.542 20825054.983 10 0 59342 84600.00000 0 -16699335.973 -727382.203 19271431.256 10 0 59342 85500.00000 0 -18604843.748 -1939774.817 17343625.810 10 0 59343 0.00000 0 -20370177.463 -2881527.469 15078989.456 10 0 59343 900.00000 0 -21933471.550 -3560855.592 12521432.999 10 0 59343 1800.00000 0 -23237761.270 -3997752.853 9720581.331 10 0 59343 2700.00000 0 -24233328.366 -4222893.854 6730813.540 10 0 59343 3600.00000 0 -24879764.788 -4276085.115 3610208.110 10 0 59343 4500.00000 0 -25147666.178 -4204329.520 419413.290 10 0 59343 5400.00000 0 -25019883.675 -4059587.004 -2779535.115 10 0 59343 6300.00000 0 -24492280.388 -3896326.886 -5924425.080 10 0 59343 7200.00000 0 -23573959.966 -3768976.417 -8954084.492 10 0 59343 8100.00000 0 -22286956.988 -3729374.636 -11809577.613 10 0 59343 9000.00000 0 -20665401.700 -3824340.484 -14435357.814 10 0 59343 9900.00000 0 -18754193.963 -4093459.226 -16780353.367 10 0 59343 10800.00000 0 -16607241.993 -4567181.959 -18798964.668 10 0 59343 11700.00000 0 -14285339.736 -5265319.527 -20451953.211 10 0 59343 12600.00000 0 -11853771.942 -6195995.356 -21707204.913 10 0 59343 13500.00000 0 -9379747.140 -7355102.182 -22540353.130 10 0 59343 14400.00000 0 -6929765.674 -8726286.285 -22935249.576 10 0 59343 15300.00000 0 -4567032.489 -10281460.528 -22884274.412 10 0 59343 16200.00000 0 -2349022.085 -11981825.205 -22388479.922 10 0 59343 17100.00000 0 -325296.397 -13779354.430 -21457565.398 10 0 59343 18000.00000 0 1464334.321 -15618686.140 -20109684.066 10 0 59343 18900.00000 0 2991232.163 -17439336.942 -18371086.034 10 0 59343 19800.00000 0 4238875.943 -19178149.380 -16275604.313 10 0 59343 20700.00000 0 5203291.325 -20771869.340 -13863994.017 10 0 59343 21600.00000 0 5892950.457 -22159745.860 -11183137.585 10 0 59343 22500.00000 0 6328147.009 -23286044.585 -8285131.479 10 0 59343 23400.00000 0 6539874.486 -24102369.595 -5226272.246 10 0 59343 24300.00000 0 6568256.560 -24569696.402 -2065961.740 10 0 59343 25200.00000 0 6460596.897 -24660030.939 1134447.089 10 0 59343 26100.00000 0 6269131.854 -24357625.077 4312841.115 10 0 59343 27000.00000 0 6048581.799 -23659697.828 7407551.441 10 0 59343 27900.00000 0 5853605.132 -22576632.088 10358547.779 10 0 59343 28800.00000 0 5736262.970 -21131638.782 13108599.600 10 0 59343 29700.00000 0 5743601.790 -19359902.459 15604381.712 10 0 59343 30600.00000 0 5915456.213 -17307243.913 17797503.225 10 0 59343 31500.00000 0 6282564.685 -15028355.471 19645440.367 10 0 59343 32400.00000 0 6865077.571 -12584682.056 21112355.774 10 0 59343 33300.00000 0 7671520.798 -10042035.625 22169789.026 10 0 59343 34200.00000 0 8698259.054 -7468041.508 22797205.680 10 0 59343 35100.00000 0 9929481.875 -4929521.775 22982394.664 10 0 59343 36000.00000 0 11337714.238 -2489923.320 22721706.654 10 0 59343 36900.00000 0 12884831.462 -206896.459 22020128.812 10 0 59343 37800.00000 0 14523537.323 1869876.447 20891194.190 10 0 59343 38700.00000 0 16199244.931 3700513.034 19356726.991 10 0 59343 39600.00000 0 17852282.943 5256348.206 17446427.864 10 0 59343 40500.00000 0 19420335.865 6520878.316 15197306.356 10 0 59343 41400.00000 0 20841017.078 7490193.460 12652970.547 10 0 59343 42300.00000 0 22054467.091 8172880.279 9862786.814 10 0 59343 43200.00000 0 23005868.110 8589399.866 6880925.355 10 0 59343 44100.00000 0 23647768.959 8770967.436 3765309.514 10 0 59343 45000.00000 0 23942121.961 8757981.439 576489.327 10 0 59343 45900.00000 0 23861945.231 8598069.114 -2623538.661 10 0 59343 46800.00000 0 23392539.383 8343831.772 -5772541.889 10 0 59343 47700.00000 0 22532206.417 8050386.077 -8809268.262 10 0 59343 48600.00000 0 21292439.569 7772806.362 -11674644.168 10 0 59343 49500.00000 0 19697575.297 7563577.281 -14312929.950 10 0 59343 50400.00000 0 17783921.436 7470165.643 -16672809.555 10 0 59343 51300.00000 0 15598397.684 7532815.155 -18708392.626 10 0 59343 52200.00000 0 13196745.116 7782658.187 -20380109.293 10 0 59343 53100.00000 0 10641379.608 8240225.089 -21655480.070 10 0 59343 54000.00000 0 7998978.762 8914414.581 -22509746.104 10 0 59343 54900.00000 0 5337902.927 9801969.172 -22926347.822 10 0 59343 55800.00000 0 2725557.707 10887478.074 -22897243.052 10 0 59343 56700.00000 0 225807.377 12143907.839 -22423058.931 10 0 59343 57600.00000 0 -2103453.669 13533638.738 -21513075.035 10 0 59343 58500.00000 0 -4212471.128 15009963.566 -20185038.423 10 0 59343 59400.00000 0 -6061453.339 16518986.174 -18464814.430 10 0 59343 60300.00000 0 -7621971.565 18001840.266 -16385880.122 10 0 59343 61200.00000 0 -8877880.958 19397135.439 -13988670.341 10 0 59343 62100.00000 0 -9825725.410 20643527.903 -11319789.108 10 0 59343 63000.00000 0 -10474611.024 21682308.047 -8431101.652 10 0 59343 63900.00000 0 -10845555.180 22459896.140 -5378724.908 10 0 59343 64800.00000 0 -10970340.187 22930141.368 -2221936.140 10 0 59343 65700.00000 0 -10889921.255 23056327.558 977978.931 10 0 59343 66600.00000 0 -10652457.115 22812801.300 4158915.841 10 0 59343 67500.00000 0 -10311047.418 22186154.016 7259155.696 10 0 59343 68400.00000 0 -9921273.185 21175908.272 10218560.611 10 0 59343 69300.00000 0 -9538644.638 19794679.440 12979736.981 10 0 59343 70200.00000 0 -9216064.446 18067805.729 15489144.261 10 0 59343 71100.00000 0 -9001413.498 16032461.720 17698128.081 10 0 59343 72000.00000 0 -8935360.956 13736292.053 19563858.136 10 0 59343 72900.00000 0 -9049490.803 11235621.593 21050153.308 10 0 59343 73800.00000 0 -9364823.723 8593315.848 22128178.770 10 0 59343 74700.00000 0 -9890796.575 5876379.742 22777002.115 10 0 59343 75600.00000 0 -10624742.691 3153393.417 22983998.322 10 0 59343 76500.00000 0 -11551895.407 491890.370 22745096.009 10 0 59343 77400.00000 0 -12645915.506 -2044214.386 22064860.220 10 0 59343 78300.00000 0 -13869921.478 -4397040.510 20956409.933 10 0 59343 79200.00000 0 -15177980.619 -6516903.629 19441171.296 10 0 59343 80100.00000 0 -16516999.575 -8364132.729 17548470.665 10 0 59343 81000.00000 0 -17828936.156 -9910468.772 15314974.383 10 0 59343 81900.00000 0 -19053240.439 -11139986.897 12783985.194 10 0 59343 82800.00000 0 -20129423.186 -12049504.101 10004608.103 10 0 59343 83700.00000 0 -20999643.781 -12648455.843 7030801.150 10 0 59343 84600.00000 0 -21611208.634 -12958247.197 3920329.047 10 0 59343 85500.00000 0 -21918874.245 -13011106.280 733639.971 10 0 59344 0.00000 0 -21886857.115 -12848488.885 -2467312.432 10 0 59344 900.00000 0 -21490464.321 -12519102.355 -5620278.891 10 0 59344 1800.00000 0 -20717276.015 -12076632.786 -8663930.882 10 0 59344 2700.00000 0 -19567826.861 -11577272.975 -11539060.385 10 0 59344 3600.00000 0 -18055758.707 -11077156.147 -14189737.967 10 0 59344 4500.00000 0 -16207435.714 -10629805.320 -16564406.179 10 0 59344 5400.00000 0 -14061037.961 -10283706.912 -18616886.435 10 0 59344 6300.00000 0 -11665170.766 -10080111.944 -20307279.495 10 0 59344 7200.00000 0 -9077047.587 -10051158.367 -21602741.863 10 0 59344 8100.00000 0 -6360322.172 -10218394.149 -22478123.196 10 0 59344 9000.00000 0 -3582660.056 -10591763.762 -22916452.641 10 0 59344 9900.00000 0 -813150.492 -11169100.865 -22909265.023 10 0 59344 10800.00000 0 1880333.914 -11936148.640 -22456761.036 10 0 59344 11700.00000 0 4433720.509 -12867106.926 -21567798.704 10 0 59344 12600.00000 0 6789155.984 -13925683.073 -20259716.642 10 0 59344 13500.00000 0 8897162.158 -15066602.320 -18557992.781 10 0 59344 14400.00000 0 10718439.452 -16237514.142 -16495745.329 10 0 59344 15300.00000 0 12225244.173 -17381214.353 -14113085.750 10 0 59344 16200.00000 0 13402283.546 -18438089.470 -11456336.380 10 0 59344 17100.00000 0 14247092.724 -19348680.459 -8577127.873 10 0 59344 18000.00000 0 14769879.512 -20056257.870 -5531394.167 10 0 59344 18900.00000 0 14992844.986 -20509299.911 -2378284.592 10 0 59344 19800.00000 0 14949010.101 -20663768.999 820985.596 10 0 59344 20700.00000 0 14680598.977 -20485090.874 4004323.637 10 0 59344 21600.00000 0 14237048.204 -19949752.798 7109963.421 10 0 59344 22500.00000 0 13672726.946 -19046453.467 10077661.907 10 0 59344 23400.00000 0 13044464.656 -17776756.052 12849864.490 10 0 59344 24300.00000 0 12408991.006 -16155216.627 15372816.927 10 0 59344 25200.00000 0 11820396.078 -14208982.108 17597602.605 10 0 59344 26100.00000 0 11327717.728 -11976873.928 19481085.482 10 0 59344 27000.00000 0 10972757.505 -9507994.943 20986741.080 10 0 59344 27900.00000 0 10788216.735 -6859916.603 22085360.149 10 0 59344 28800.00000 0 10796230.930 -4096520.869 22755611.933 10 0 59344 29700.00000 0 11007364.007 -1285585.264 22984456.741 10 0 59344 30600.00000 0 11420104.685 1503789.945 22767400.108 10 0 59344 31500.00000 0 12020886.565 4203806.885 22108583.685 10 0 59344 32400.00000 0 12784631.644 6750539.915 21020710.876 10 0 59344 33300.00000 0 13675795.275 9086344.599 19524808.106 10 0 59344 34200.00000 0 14649869.605 11162006.663 17649825.625 10 0 59344 35100.00000 0 15655283.239 12938542.362 15432084.631 10 0 59344 36000.00000 0 16635618.108 14388575.893 12914580.491 10 0 59344 36900.00000 0 17532050.848 15497236.744 10146154.686 10 0 59344 37800.00000 0 18285916.167 16262539.868 7180550.850 10 0 59344 38700.00000 0 18841284.106 16695233.090 4075372.731 10 0 59344 39600.00000 0 19147442.037 16818118.452 890964.256 10 0 59344 40500.00000 0 19161175.912 16664876.542 -2310766.375 10 0 59344 41400.00000 0 18848753.414 16278443.895 -5467555.288 10 0 59344 42300.00000 0 18187524.095 15709012.596 -8517999.910 10 0 59344 43200.00000 0 17167067.697 15011737.388 -11402759.918 10 0 59344 44100.00000 0 15789840.919 14244247.992 -14065717.986 10 0 59344 45000.00000 0 14071294.242 13464072.679 -16455076.910 10 0 59344 45900.00000 0 12039452.818 12726082.738 -18524371.291 10 0 59344 46800.00000 0 9733978.098 12080066.478 -20233373.704 10 0 59344 47700.00000 0 7204748.870 11568535.688 -21548877.627 10 0 59344 48600.00000 0 4510020.450 11224857.390 -22445342.024 10 0 59344 49500.00000 0 1714238.395 11071789.762 -22905385.366 10 0 59344 50400.00000 0 -1114402.445 11120483.807 -22920119.859 10 0 59344 51300.00000 0 -3906552.374 11369992.600 -22489319.865 10 0 59344 52200.00000 0 -6594347.341 11807308.431 -21621421.643 10 0 59344 53100.00000 0 -9113986.194 12407925.901 -20333354.781 10 0 59344 54000.00000 0 -11408138.273 13136906.909 -18650208.848 10 0 59344 54900.00000 0 -13428082.081 13950402.342 -16604741.867 10 0 59344 55800.00000 0 -15135486.956 14797566.077 -14236740.272 10 0 59344 56700.00000 0 -16503764.702 15622780.409 -11592242.802 10 0 59344 57600.00000 0 -17518936.107 16368098.906 -8722643.432 10 0 59344 58500.00000 0 -18179977.489 16975803.480 -5683690.869 10 0 59344 59400.00000 0 -18498634.254 17390967.683 -2534404.197 10 0 59344 60300.00000 0 -18498710.782 17563917.913 664074.156 10 0 59344 61200.00000 0 -18214867.791 17452488.564 3849665.532 10 0 59344 62100.00000 0 -17690979.028 17023975.843 6960559.034 10 0 59344 63000.00000 0 -16978117.465 16256707.661 9936408.917 10 0 59344 63900.00000 0 -16132256.524 15141163.246 12719502.028 10 0 59344 64800.00000 0 -15211783.657 13680594.978 15255872.865 10 0 59344 65700.00000 0 -14274931.112 11891125.769 17496344.945 10 0 59344 66600.00000 0 -13377231.944 9801317.263 19397478.753 10 0 59344 67500.00000 0 -12569107.991 7451225.958 20922408.552 10 0 59344 68400.00000 0 -11893690.743 4890985.572 22041552.535 10 0 59344 69300.00000 0 -11384966.176 2178973.531 22733183.194 10 0 59344 70200.00000 0 -11066321.008 -620363.545 22983847.417 10 0 59344 71100.00000 0 -10949551.064 -3438936.458 22788628.523 10 0 59344 72000.00000 0 -11034373.297 -6207592.771 22151245.206 10 0 59344 72900.00000 0 -11308462.035 -8858743.204 21083985.271 10 0 59344 73800.00000 0 -11748008.309 -11328927.339 19607474.907 10 0 59344 74700.00000 0 -12318779.292 -13561212.976 17750287.243 10 0 59344 75600.00000 0 -12977633.952 -15507330.293 15548396.846 10 0 59344 76500.00000 0 -13674431.765 -17129452.504 13044489.755 10 0 59344 77400.00000 0 -14354254.622 -18401549.094 10287141.580 10 0 59344 78300.00000 0 -14959848.549 -19310255.362 7329878.859 10 0 59344 79200.00000 0 -15434182.205 -19855222.045 4230141.412 10 0 59344 80100.00000 0 -15723013.790 -20048930.469 1048165.739 10 0 59344 81000.00000 0 -15777357.217 -19915981.273 -2154188.663 10 0 59344 81900.00000 0 -15555742.375 -19491886.986 -5314646.870 10 0 59344 82800.00000 0 -15026172.732 -18821419.814 -8371735.685 10 0 59344 83700.00000 0 -14167696.291 -17956584.988 -11265985.949 10 0 59344 84600.00000 0 -12971522.148 -16954305.911 -13941095.829 10 0 59344 85500.00000 0 -11441634.256 -15873919.601 -16345031.585 10 0 59345 0.00000 0 -9594875.362 -14774588.841 -18431043.877 10 0 59345 900.00000 0 -7460495.997 -13712741.047 -20158579.690 10 0 59345 1800.00000 0 -5079187.698 -12739641.602 -21494071.455 10 0 59345 2700.00000 0 -2501638.365 -11899205.501 -22411588.842 10 0 59345 3600.00000 0 213328.993 -11226137.833 -22893340.410 10 0 59345 4500.00000 0 3000957.862 -10744482.340 -22930015.858 10 0 59345 5400.00000 0 5793008.690 -10466638.082 -22520962.705 10 0 59345 6300.00000 0 8520356.818 -10392885.146 -21674194.375 10 0 59345 7200.00000 0 11115630.250 -10511438.605 -20406229.864 10 0 59345 8100.00000 0 13515778.191 -10799027.721 -18741768.371 10 0 59345 9000.00000 0 15664464.212 -11221975.305 -16713205.337 10 0 59345 9900.00000 0 17514185.137 -11737731.075 -14359999.409 10 0 59345 10800.00000 0 19028028.348 -12296793.822 -11727902.653 10 0 59345 11700.00000 0 20180995.249 -12844940.787 -8868068.990 10 0 59345 12600.00000 0 20960836.709 -13325669.760 -5836058.313 10 0 59345 13500.00000 0 21368366.839 -13682750.442 -2690755.724 10 0 59345 14400.00000 0 21417243.213 -13862777.012 506772.939 10 0 59345 15300.00000 0 21133224.030 -13817613.851 3694466.793 10 0 59345 16200.00000 0 20552934.587 -13506630.897 6810473.603 10 0 59345 17100.00000 0 19722195.949 -12898634.033 9794348.032 10 0 59345 18000.00000 0 18693986.872 -11973408.815 12588221.075 10 0 59345 18900.00000 0 17526125.248 -10722812.119 15137918.169 10 0 59345 19800.00000 0 16278766.770 -9151365.220 17394004.661 10 0 59345 20700.00000 0 15011825.922 -7276322.747 19312738.752 10 0 59345 21600.00000 0 13782427.302 -5127213.663 20856914.130 10 0 59345 22500.00000 0 12642493.725 -2744872.309 21996576.668 10 0 59345 23400.00000 0 11636571.669 -179998.694 22709601.900 10 0 59345 24300.00000 0 10799984.535 2508693.497 22982122.696 10 0 59345 25200.00000 0 10157390.495 5256665.694 22808799.195 10 0 59345 26100.00000 0 9721804.883 7995990.575 22192925.835 10 0 59345 27000.00000 0 9494127.792 10657935.862 21146373.229 10 0 59345 27900.00000 0 9463196.588 13175589.870 19689365.479 10 0 59345 28800.00000 0 9606361.246 15486420.701 17850096.524 10 0 59345 29700.00000 0 9890558.597 17534663.626 15664192.046 10 0 59345 30600.00000 0 10273840.611 19273437.822 13174026.352 10 0 59345 31500.00000 0 10707292.670 20666504.462 10427906.646 10 0 59345 32400.00000 0 11137261.124 21689592.916 7479139.740 10 0 59345 33300.00000 0 11507796.066 22331239.531 4384998.821 10 0 59345 34200.00000 0 11763205.822 22593103.768 1205610.238 10 0 59345 35100.00000 0 11850614.530 22489748.415 -1997217.924 10 0 59345 36000.00000 0 11722413.755 22047893.230 -5161202.297 10 0 59345 36900.00000 0 11338503.289 21305173.643 -8224801.493 10 0 59345 37800.00000 0 10668225.097 20308457.252 -11128419.724 10 0 59345 38700.00000 0 9691907.230 19111789.591 -13815572.576 10 0 59345 39600.00000 0 8401951.160 17774056.405 -16233991.414 10 0 59345 40500.00000 0 6803415.291 16356461.616 -18336644.385 10 0 59345 41400.00000 0 4914068.816 14919927.758 -20082653.824 10 0 59345 42300.00000 0 2763912.537 13522528.815 -21438092.008 10 0 59345 43200.00000 0 394185.752 12217063.664 -22376639.946 10 0 59345 44100.00000 0 -2144100.128 11048872.077 -22880096.669 10 0 59345 45000.00000 0 -4792040.602 10053984.819 -22938729.494 10 0 59345 45900.00000 0 -7485052.042 9257684.919 -22551458.931 10 0 59345 46800.00000 0 -10155328.898 8673539.783 -21725875.054 10 0 59345 47700.00000 0 -12734442.321 8302943.858 -20478085.376 10 0 59345 48600.00000 0 -15155972.570 8135190.011 -18832397.461 10 0 59345 49500.00000 0 -17358066.260 8148065.539 -16820842.547 10 0 59345 50400.00000 0 -19285812.448 8308946.705 -14482549.586 10 0 59345 51300.00000 0 -20893339.301 8576344.718 -11862981.852 10 0 59345 52200.00000 0 -22145544.652 8901837.105 -9013050.965 10 0 59345 53100.00000 0 -23019388.981 9232302.254 -5988125.686 10 0 59345 54000.00000 0 -23504697.760 9512362.148 -2846954.818 10 0 59345 54900.00000 0 -23604440.590 9686929.546 349474.714 10 0 59345 55800.00000 0 -23334476.450 9703751.593 3539122.099 10 0 59345 56700.00000 0 -22722776.803 9515841.988 6660096.068 10 0 59345 57600.00000 0 -21808160.103 9083698.665 9651853.995 10 0 59345 58500.00000 0 -20638591.608 8377213.071 12456373.309 10 0 59345 59400.00000 0 -19269120.468 7377190.141 15019272.651 10 0 59345 60300.00000 0 -17759540.971 6076414.479 17290861.373 10 0 59345 61200.00000 0 -16171876.098 4480217.282 19227097.431 10 0 59345 62100.00000 0 -14567788.629 2606519.373 20790435.792 10 0 59345 63000.00000 0 -13006027.738 485347.429 21950551.600 10 0 59345 63900.00000 0 -11540017.317 -1842157.623 22684924.723 10 0 59345 64800.00000 0 -10215686.102 -4325200.160 22979274.972 10 0 59345 65700.00000 0 -9069629.532 -6905198.203 22827839.908 10 0 59345 66600.00000 0 -8127679.486 -9517984.334 22233489.948 10 0 59345 67500.00000 0 -7403941.050 -12096249.336 21207678.372 10 0 59345 68400.00000 0 -6900336.182 -14572128.399 19770226.669 10 0 59345 69300.00000 0 -6606673.123 -16879823.508 17948948.686 10 0 59345 70200.00000 0 -6501238.505 -18958153.872 15779119.935 10 0 59345 71100.00000 0 -6551887.271 -20752928.805 13302801.361 10 0 59345 72000.00000 0 -6717584.621 -22219044.311 10568029.807 10 0 59345 72900.00000 0 -6950334.974 -23322215.898 7627890.120 10 0 59345 73800.00000 0 -7197416.427 -24040274.963 4539486.383 10 0 59345 74700.00000 0 -7403825.993 -24363974.082 1362832.124 10 0 59345 75600.00000 0 -7514831.616 -24297267.200 -1840318.799 10 0 59345 76500.00000 0 -7478522.168 -23857052.714 -5007677.533 10 0 59345 77400.00000 0 -7248246.423 -23072390.169 -8077637.559 10 0 59345 78300.00000 0 -6784836.566 -21983223.698 -10990479.595 10 0 59345 79200.00000 0 -6058520.800 -20638666.207 -13689539.799 10 0 59345 80100.00000 0 -5050442.845 -19094916.999 -16122317.719 10 0 59345 81000.00000 0 -3753722.787 -17412900.998 -18241501.876 10 0 59345 81900.00000 0 -2174013.233 -15655729.326 -20005892.669 10 0 59345 82800.00000 0 -329526.191 -13886088.434 -21381204.461 10 0 59345 83700.00000 0 1749471.536 -12163667.645 -22340731.388 10 0 59345 84600.00000 0 4021674.313 -10542733.022 -22865864.223 10 0 59345 85500.00000 0 6436223.198 -9069949.076 -22946448.622 99